Naxing 3A

operational
NORAD ID: 60013 Int'l Des: 2024-110 Owner: TSHUA Country: CN
LEOCIRCULARRETROGRADESSO

About Naxing 3A

Description loading...

Live Position

Loading 3D Globe...

Upcoming Passes

Altitude History

Altitude vs Time

uPlot chart will show altitude changes over time

Two-Line Element Set

1 60013U 24110B 26062.22998541 .00009836 00000-0 44893-3 0 9991
2 60013 97.5706 157.5463 0010109 256.7787 103.2321 15.20774006 96076
Epoch: Mar 3, 2026 • Age: 10 hours

Current Status

Altitude 509.2 km
Velocity 7.61 km/s
Sub-Earth Point 14.78°N, 160.29°W
Launch Date Jun 6, 2024
Age 1.7 years
Type other

Technical Details

Classification Payload
Mass 20.00 kg
Dry Mass 20.00 kg
Total Mass 20.00 kg
Length 0.40 m
Diameter 0.40 m
Span 0.40 m
Shape Box
Manufacturer TSHUA
Bus Type Naxing
Phase Status In Orbit
Owner/State TSHUA/CN

Large Constellations

Loading constellations...